Date,TemperatureHighF,TemperatureAvgF,TemperatureLowF,DewpointHighF,DewpointAvgF,DewpointLowF,HumidityHigh,HumidityAvg,HumidityLow,PressureMaxIn,PressureMinIn,WindSpeedMaxMPH,WindSpeedAvgMPH,GustSpeedMaxMPH,PrecipitationSumIn
2013-9-1,80.3,67.5,57.6,60.0,56.6,54.0,92,71,42,29.92,29.86,5,1,9,0.00
2013-9-2,78.2,68.4,61.7,63.0,60.7,56.0,91,77,53,29.94,29.86,4,0,6,0.00
2013-9-3,75.3,65.9,57.3,59.0,55.5,50.0,90,71,42,29.98,29.91,6,1,9,0.00
2013-9-4,76.9,65.6,56.7,59.0,56.9,54.0,95,76,47,30.01,29.92,5,1,9,0.00
2013-9-5,76.6,65.9,56.9,59.0,54.8,51.0,95,71,43,29.99,29.93,6,1,9,0.00
2013-9-6,87.5,71.9,55.1,57.0,51.1,42.0,94,55,21,29.97,29.82,4,1,9,0.00
2013-9-7,94.0,76.8,63.5,53.0,48.0,43.0,56,39,18,29.86,29.78,7,1,8,0.00
2013-9-8,92.0,78.2,60.7,58.0,52.7,45.0,76,44,20,29.84,29.73,6,1,8,0.00
2013-9-9,94.9,76.9,63.6,56.0,52.0,48.0,72,45,21,29.78,29.66,5,1,7,0.00
2013-9-10,73.4,64.5,57.7,60.0,57.4,54.0,91,78,61,29.88,29.69,5,1,8,0.00
2013-9-11,69.8,64.1,61.0,59.0,57.9,57.0,89,81,68,29.98,29.87,4,1,9,0.00
2013-9-12,76.9,64.8,58.5,63.0,59.2,56.0,92,83,58,29.97,29.87,2,0,6,0.00
2013-9-13,79.6,64.3,56.1,60.0,56.1,53.8,95,77,48,29.88,29.74,3,0,6,0.00
2013-9-14,71.3,61.2,54.8,59.0,55.6,53.0,94,83,64,29.80,29.72,3,0,6,0.00
2013-9-15,75.0,62.6,53.4,58.0,55.6,52.0,96,80,54,29.85,29.77,5,1,10,0.00
2013-9-16,78.6,65.1,57.0,61.0,57.4,55.0,97,79,46,29.88,29.77,4,0,6,0.00
2013-9-17,71.7,63.1,55.6,56.0,53.6,51.0,94,73,50,29.87,29.80,9,1,10,0.00
2013-9-18,81.0,66.8,56.2,52.0,48.4,41.0,81,55,25,29.90,29.81,5,1,8,0.00
2013-9-19,86.6,71.2,57.5,50.0,44.1,39.0,66,41,20,29.84,29.73,7,1,7,0.00
2013-9-20,70.0,62.3,52.8,61.0,55.4,48.0,93,78,61,29.83,29.74,6,1,10,0.00
2013-9-21,63.8,60.9,56.3,60.0,57.3,53.0,95,88,80,29.89,29.79,6,0,7,0.53
2013-9-22,68.3,60.4,52.3,57.0,53.4,51.0,97,79,56,29.99,29.89,4,1,8,0.00
2013-9-23,77.2,65.1,53.8,60.0,54.8,51.0,91,71,47,30.01,29.92,6,1,8,0.00
2013-9-24,71.6,62.3,56.7,56.0,53.2,48.0,92,73,51,29.97,29.88,11,2,14,0.00
2013-9-25,66.5,59.1,54.6,48.0,47.0,44.0,78,65,46,29.92,29.81,9,3,16,0.00
2013-9-26,70.7,60.4,50.6,47.0,42.6,37.0,80,55,30,29.98,29.83,8,2,11,0.00
2013-9-27,74.6,62.5,50.3,45.0,39.4,33.0,73,45,23,30.09,29.98,3,1,6,0.00
2013-9-28,81.2,66.1,53.8,55.0,40.4,32.0,88,43,20,30.07,29.99,3,0,5,0.00
2013-9-29,70.8,62.9,54.8,60.0,57.3,53.0,96,82,65,30.09,30.04,3,1,6,0.00
2013-9-30,70.4,64.5,58.5,63.0,59.6,48.0,95,84,68,30.06,29.95,3,0,6,0.01